Location: Unspecified
(0.0000°N, 0.0000°E)
Time: 09:49:06
(UTC+00:00)

Amateur Radio Satellites - All Passes

Search period start: 27 May 2015 09:19
Search period end: 28 May 2015 09:19
Location: Unspecified, 0.0000°N, 0.0000°E

Satellite Date Start Highest point End Downlink Frequencies (MHz)
Time Altitude Azimuth
DELFI C3 27 May 09:21:12 09:25:11 68° 101° (E) 09:29:12 145.870
HUMSAT D 27 May 09:31:58 09:35:06 22° 100° (E) 09:38:21 437.325/437.525
CUBEBUG 2 27 May 09:35:49 09:39:58 55° 281° (W) 09:44:03 437.445
ZACube-1 27 May 09:37:11 09:41:22 82° 101° (E) 09:45:31 437.345
UKube-1 27 May 09:39:25 09:43:09 29° 101° (ESE) 09:46:58 .
TIGRISAT 27 May 09:46:54 09:51:05 33° 79° (E) 09:55:21 435.000
VERMONT LUNAR 27 May 09:47:21 09:50:28 50° 223° (SW) 09:53:37 437.305
DX 1 27 May 09:47:51 09:51:59 43° 101° (ESE) 09:56:10 434.975-435.025
Oscar 11 27 May 09:50:01 09:53:48 29° 280° (W) 09:57:31 145.826/435.025
PCSat 27 May 09:57:43 10:01:05 17° 68° (ENE) 10:04:43 145.827
VELOX 1 27 May 10:02:35 10:06:20 28° 101° (E) 10:10:10 145.980
CUBEBUG 1 27 May 10:03:16 10:04:17 11° 100° (E) 10:05:40 437.445
ESTCUBE 1 27 May 10:06:38 10:09:18 16° 100° (E) 10:12:14 437.505/2401.250
UNISAT 6 27 May 10:06:54 10:11:34 67° 79° (ENE) 10:16:15 437.425
SRMSAT 27 May 10:09:10 10:13:35 21° 344° (NNW) 10:17:55 437.500
QB50P1 27 May 10:09:13 10:12:34 23° 79° (E) 10:16:01 145.935-145.965
POLYITAN 1 27 May 10:11:05 10:14:36 25° 79° (E) 10:18:12 437.675
PHONESAT 2.4 27 May 10:16:35 10:19:46 35° 43° (NE) 10:23:00 2401.200-2431.200
UWE-3 27 May 10:24:40 10:27:12 15° 280° (W) 10:29:31 435.000/436.395/437.385
Cosmos 2504 27 May 10:25:50 10:32:44 24° 274° (W) 10:38:58 435.465 / 435.565
50 SAT 27 May 10:26:38 10:30:27 75° 100° (E) 10:34:18 437.505
AISAT 27 May 10:33:32 10:38:00 83° 102° (ESE) 10:42:28 437.250
FUNcube-1 27 May 10:34:28 10:37:00 15° 280° (W) 10:39:19 145.935
NANOSAT C BR1 27 May 10:39:40 10:43:53 67° 79° (ENE) 10:48:07 145.865
JUGNU 27 May 10:45:57 10:46:40 10° 355° (N) 10:47:21 437.505
QB50P2 27 May 10:47:41 10:51:58 87° 252° (WSW) 10:56:15 145.880/145.840
ANTELSAT 27 May 10:50:42 10:54:53 31° 259° (W) 10:59:00 437.575/2403.000
POPSAT HIP 1 27 May 11:00:00 11:04:13 59° 259° (WSW) 11:08:25 437.405
DUCHIFAT 1 27 May 11:01:53 11:06:03 57° 259° (W) 11:10:14 145.980
CUSAT 1 27 May 11:02:00 11:06:07 21° 91° (E) 11:11:17 437.405
HUMSAT D 27 May 11:08:48 11:10:44 13° 280° (W) 11:12:25 437.325/437.525
UKube-1 27 May 11:17:44 11:19:11 11° 280° (W) 11:20:18 .
BUGSAT 1 27 May 11:24:46 11:28:37 41° 259° (W) 11:32:29 437.445
TIGRISAT 27 May 11:25:47 11:27:44 12° 260° (W) 11:29:19 435.000
CUBEBUG 1 27 May 11:36:36 11:40:33 31° 281° (W) 11:44:26 437.445
PCSat 27 May 11:39:40 11:44:24 30° 249° (WSW) 11:49:03 145.827
VELOX 1 27 May 11:40:40 11:42:47 13° 280° (W) 11:44:35 145.980
ESTCUBE 1 27 May 11:42:25 11:46:04 23° 280° (W) 11:49:35 437.505/2401.250
GONETS M04 27 May 11:46:00 11:54:17 47° 94° (E) 12:02:40
QB50P1 27 May 11:46:03 11:48:19 14° 260° (W) 11:50:19 145.935-145.965
POLYITAN 1 27 May 11:48:24 11:50:24 13° 260° (W) 11:52:05 437.675
PHONESAT 2.4 27 May 11:56:06 11:57:52 13° 220° (SW) 11:59:30 2401.200-2431.200
SRMSAT 27 May 12:01:55 12:03:35 11° 353° (N) 12:05:11 437.500
DANDE 27 May 12:12:53 12:18:05 86° 95° (E) 12:25:03 436.750
SPROUT 27 May 12:14:37 12:18:44 46° 281° (W) 12:22:52 437.525
SWISSCUBE 27 May 12:15:52 12:17:07 11° 100° (E) 12:18:46 437.505
SO-50 27 May 12:29:14 12:33:29 32° 67° (ENE) 12:37:43 436.795
JUGNU 27 May 12:35:38 12:36:51 11° 6° (N) 12:38:06 437.505
TISAT 1 27 May 12:37:36 12:41:24 31° 281° (W) 12:45:08 437.305
Oscar 19 27 May 12:41:39 12:46:28 39° 78° (ENE) 12:51:18 437.125/150
CUSAT 1 27 May 12:43:22 12:48:29 32° 280° (W) 12:54:38 437.405
ITAMSAT 1 27 May 12:59:15 13:00:51 12° 79° (E) 13:02:52 435.822/435.867
Cosmos 2499 27 May 13:01:44 13:07:53 23° 97° (E) 13:14:13 435.465 / 435.565
O/OREOS (USA 219) 27 May 13:27:50 13:31:51 31° 106° (ESE) 13:35:54 437.305
ITUPSAT 1 27 May 13:34:01 13:38:46 69° 282° (WNW) 13:43:35 437.325
Gurwin Techsat 1B 27 May 13:35:15 13:39:57 34° 79° (ENE) 13:44:44 435.225
BEESAT 27 May 13:41:40 13:46:19 53° 282° (WNW) 13:50:59 436.000
KKS-1 27 May 13:43:23 13:46:02 16° 100° (E) 13:48:55 437.445
GONETS M04 27 May 13:44:31 13:51:03 22° 276° (W) 13:57:04
SWISSCUBE 27 May 13:50:28 13:54:53 36° 281° (W) 13:59:15 437.505
SO-50 27 May 14:11:32 14:13:55 13° 246° (WSW) 14:15:57 436.795
JUGNU 27 May 14:22:40 14:26:44 19° 15° (NNE) 14:30:51 437.505
Oscar 19 27 May 14:23:27 14:25:43 12° 259° (W) 14:27:36 437.125/150
ITAMSAT 1 27 May 14:35:26 14:40:17 40° 258° (WSW) 14:45:04 435.822/435.867
STARS 27 May 14:45:17 14:49:38 68° 102° (ESE) 14:53:59 437.465
HORYU 2 27 May 14:47:59 14:51:44 27° 79° (E) 14:55:33 437.375
Cosmos 2499 27 May 14:52:49 15:01:03 45° 274° (W) 15:08:38 435.465 / 435.565
AO-7 27 May 15:09:15 15:17:00 46° 75° (ENE) 15:24:51 29.400- 29.500
O/OREOS (USA 219) 27 May 15:09:52 15:11:12 11° 287° (WNW) 15:12:08 437.305
MOZHAYETS 4 27 May 15:15:36 15:16:55 11° 100° (E) 15:18:35
Gurwin Techsat 1B 27 May 15:16:40 15:19:50 15° 259° (W) 15:22:40 435.225
KKS-1 27 May 15:19:05 15:22:33 22° 281° (W) 15:25:54 437.445
BEESAT 3 27 May 15:26:44 15:30:27 39° 112° (ESE) 15:34:15 437.485
JAS-2 27 May 15:37:38 15:45:16 78° 257° (WSW) 15:52:06 435.910
SRMSAT 27 May 15:40:29 15:44:03 16° 13° (NNE) 15:47:43 437.500
AIST 2 27 May 16:08:32 16:11:43 22° 113° (ESE) 16:15:03 435.215
JUGNU 27 May 16:10:30 16:16:05 46° 20° (NNE) 16:21:42 437.505
BEESAT 2 27 May 16:15:47 16:19:40 47° 292° (WNW) 16:23:35 435.950
HORYU 2 27 May 16:25:55 16:28:15 13° 259° (W) 16:30:18 437.375
MOZHAYETS 4 27 May 16:49:55 16:54:01 32° 281° (W) 16:58:07
CUTE-I 27 May 16:53:23 16:55:20 12° 79° (E) 16:57:43 437.470
CUBESAT XI-V 27 May 16:56:12 16:56:40 10° 100° (E) 16:57:34 437.345
AO-7 27 May 17:03:19 17:09:41 23° 256° (WSW) 17:15:38 29.400- 29.500
Cubesat XI-IV 27 May 17:12:07 17:16:08 23° 79° (E) 17:20:20 437.490
SRMSAT 27 May 17:28:17 17:33:42 37° 19° (NNE) 17:39:10 437.500
Cosmos 2491 27 May 17:31:52 17:38:55 29° 95° (E) 17:46:20 435.465 / 435.565
RS-15 27 May 17:35:51 17:45:01 27° 66° (ENE) 17:55:02 29.354- 29.394
AIST 2 27 May 17:47:44 17:50:11 15° 294° (WNW) 17:52:27 435.215
YUBILEINY 27 May 17:54:46 18:02:39 41° 86° (E) 18:10:47 435.215
JUGNU 27 May 17:59:21 18:05:08 63° 201° (SSW) 18:10:57 437.505
PRISM 27 May 18:05:25 18:09:11 34° 101° (ESE) 18:13:02 437.425
STRAND 1 27 May 18:20:36 18:25:31 49° 102° (ESE) 18:30:31 437.568
M-CUBED/EXP-1 PRIME 27 May 18:23:29 18:26:04 20° 106° (ESE) 18:28:53 437.505
CUBESAT XI-V 27 May 18:29:39 18:34:01 38° 281° (W) 18:38:22 437.345
CUTE-I 27 May 18:30:23 18:35:21 40° 258° (WSW) 18:40:16 437.470
AUBIESAT-1 27 May 18:31:05 18:33:48 22° 106° (ESE) 18:36:45 437.475
AIST 1 27 May 18:50:01 18:52:47 17° 96° (E) 18:55:42
Cubesat XI-IV 27 May 18:51:57 18:56:08 23° 258° (WSW) 19:00:08 437.490
BRITE-PL 27 May 18:52:36 18:55:22 16° 78° (ENE) 18:58:30 437.365/2234.400
HO-68 27 May 19:06:34 19:10:12 15° 77° (ENE) 19:14:23 435.675
SRMSAT 27 May 19:17:01 19:22:58 80° 201° (SSW) 19:28:57 437.500
Cosmos 2491 27 May 19:27:48 19:35:40 36° 275° (W) 19:43:19 435.465 / 435.565
RS-15 27 May 19:45:44 19:57:33 57° 248° (WSW) 20:09:24 29.354- 29.394
DOVE 4 27 May 19:49:32 19:53:41 31° 78° (ENE) 19:58:07 437.250
JUGNU 27 May 19:49:41 19:54:23 24° 197° (SSW) 19:59:03 437.505
YUBILEINY 27 May 19:52:31 19:59:24 25° 264° (W) 20:05:52 435.215
ISS 27 May 19:57:27 20:00:41 84° 126° (SE) 20:03:54 145.825
CANX-2 27 May 20:09:15 20:13:30 62° 79° (E) 20:17:43 2200.000
CUTE 1.7 + AOD 2 27 May 20:12:43 20:16:58 60° 79° (E) 20:21:11 437.475
CUBEBUG 2 27 May 20:15:53 20:15:56 10° 80° (E) 20:16:26 437.445
Oscar 11 27 May 20:24:23 20:26:43 15° 80° (E) 20:29:17 145.826/435.025
AIST 1 27 May 20:27:36 20:30:19 16° 276° (W) 20:32:49
GOMX 1 27 May 20:28:49 20:33:18 46° 260° (W) 20:38:05 467.674
BRITE-PL 27 May 20:29:57 20:33:44 25° 261° (W) 20:37:39 437.365/2234.400
SEEDS 27 May 20:34:25 20:38:42 82° 259° (WSW) 20:42:56 437.485
Cosmos 2504 27 May 20:42:54 20:49:49 51° 86° (E) 20:57:11 435.465 / 435.565
COMPASS 1 27 May 20:46:48 20:51:01 71° 259° (W) 20:55:12 437.405
HO-68 27 May 20:50:50 20:57:52 55° 256° (WSW) 21:04:50 435.675
UWE-3 27 May 20:58:08 21:02:13 32° 79° (E) 21:06:24 435.000/436.395/437.385
AAUSAT CUBESAT 2 27 May 20:58:31 21:02:40 57° 259° (W) 21:06:45 437.432
CINEMA 3 27 May 21:00:06 21:04:53 76° 259° (W) 21:09:49 145.822/145.860
FUNcube-1 27 May 21:06:47 21:10:43 30° 79° (E) 21:14:44 145.935
SRMSAT 27 May 21:07:07 21:12:19 30° 198° (SSW) 21:17:30 437.500
VERMONT LUNAR 27 May 21:19:32 21:22:49 83° 316° (NW) 21:26:04 437.305
DELFI C3 27 May 21:21:52 21:25:55 71° 79° (E) 21:29:56 145.870
DOVE 4 27 May 21:28:44 21:31:24 14° 262° (W) 21:33:48 437.250
ANTELSAT 27 May 21:29:08 21:31:50 17° 100° (E) 21:34:44 437.575/2403.000
HUMSAT D 27 May 21:36:59 21:40:41 28° 80° (E) 21:44:27 437.325/437.525
JUGNU 27 May 21:41:47 21:44:08 12° 189° (S) 21:46:24 437.505
ZACube-1 27 May 21:46:57 21:51:30 72° 259° (W) 21:56:05 437.345
CUBEBUG 2 27 May 21:48:08 21:52:31 39° 259° (W) 21:56:55 437.445
UKube-1 27 May 21:48:11 21:52:12 39° 79° (E) 21:56:15 .
PHONESAT 2.4 27 May 21:55:33 21:58:40 29° 138° (SE) 22:01:48 2401.200-2431.200
DX 1 27 May 21:57:36 22:01:52 61° 79° (ENE) 22:06:09 434.975-435.025
Oscar 11 27 May 21:59:18 22:02:47 23° 259° (W) 22:06:08 145.826/435.025
TIGRISAT 27 May 22:00:21 22:04:26 47° 101° (E) 22:08:32 435.000
CUBEBUG 1 27 May 22:12:24 22:14:45 15° 80° (E) 22:17:22 437.445
VELOX 1 27 May 22:14:20 22:18:27 40° 79° (ENE) 22:22:37 145.980
QB50P1 27 May 22:15:34 22:19:11 28° 101° (E) 22:22:53 145.935-145.965
POLYITAN 1 27 May 22:17:49 22:21:32 31° 101° (E) 22:25:20 437.675
ESTCUBE 1 27 May 22:20:12 22:23:48 25° 79° (E) 22:27:29 437.505/2401.250
UNISAT 6 27 May 22:20:53 22:25:08 79° 281° (WNW) 22:29:24 437.425
50 SAT 27 May 22:24:10 22:28:10 69° 79° (E) 22:32:10 437.505
PCSat 27 May 22:32:12 22:37:28 54° 110° (ESE) 22:42:44 145.827
UWE-3 27 May 22:36:35 22:38:39 12° 261° (W) 22:40:22 435.000/436.395/437.385
Cosmos 2504 27 May 22:39:14 22:43:19 15° 262° (W) 22:46:50 435.465 / 435.565
FUNcube-1 27 May 22:44:46 22:46:56 13° 260° (W) 22:48:47 145.935
AISAT 27 May 22:45:55 22:50:18 65° 258° (WSW) 22:54:42 437.250
NANOSAT C BR1 27 May 22:46:03 22:50:16 84° 101° (ESE) 22:54:30 145.865
QB50P2 27 May 22:54:35 22:58:47 69° 281° (WNW) 23:03:00 145.880/145.840
SRMSAT 27 May 22:58:57 23:02:08 14° 191° (S) 23:05:14 437.500
ANTELSAT 27 May 23:05:30 23:08:31 18° 280° (W) 23:11:22 437.575/2403.000
POPSAT HIP 1 27 May 23:06:49 23:10:54 46° 281° (W) 23:14:57 437.405
DUCHIFAT 1 27 May 23:08:12 23:12:16 45° 281° (W) 23:16:17 145.980
TISAT 1 27 May 23:10:18 23:11:41 12° 80° (E) 23:13:23 437.305
HUMSAT D 27 May 23:14:39 23:16:19 12° 260° (W) 23:17:38 437.325/437.525
DANDE 27 May 23:22:19 23:26:20 21° 77° (ENE) 23:29:50 436.750
BUGSAT 1 27 May 23:28:25 23:32:20 37° 281° (W) 23:36:11 437.445
PHONESAT 2.4 27 May 23:34:27 23:36:43 16° 319° (NW) 23:38:53 2401.200-2431.200
CUBEBUG 1 27 May 23:47:36 23:51:01 22° 260° (W) 23:54:17 437.445
CUSAT 1 27 May 23:47:53 23:52:56 68° 83° (E) 23:56:42 437.405
QB50P1 27 May 23:53:50 23:54:57 11° 280° (W) 23:55:43 145.935-145.965
ESTCUBE 1 27 May 23:58:00 00:00:33 14° 260° (W) 00:02:51 437.505/2401.250
GONETS M04 28 May 00:19:15 00:27:58 88° 84° (E) 00:36:42
ITUPSAT 1 28 May 00:22:02 00:23:33 12° 80° (E) 00:25:27 437.325
SPROUT 28 May 00:23:02 00:26:58 35° 259° (W) 00:30:52 437.525
BEESAT 28 May 00:28:11 00:30:48 15° 80° (E) 00:33:41 436.000
SWISSCUBE 28 May 00:35:54 00:39:28 22° 79° (E) 00:43:11 437.505
SO-50 28 May 00:41:42 00:46:03 57° 112° (ESE) 00:50:33 436.795
TISAT 1 28 May 00:43:47 00:47:22 26° 259° (W) 00:50:51 437.305
DANDE 28 May 01:05:40 01:09:21 18° 270° (W) 01:12:15 436.750
Cosmos 2499 28 May 01:10:56 01:16:29 25° 86° (E) 01:22:38 435.465 / 435.565
Oscar 19 28 May 01:15:04 01:20:11 80° 281° (W) 01:25:19 437.125/150
JUGNU 28 May 01:21:12 01:24:21 15° 169° (SSE) 01:27:36 437.505
ITAMSAT 1 28 May 01:31:23 01:35:57 32° 102° (ESE) 01:40:39 435.822/435.867
O/OREOS (USA 219) 28 May 01:38:21 01:42:43 54° 75° (ENE) 01:47:07 437.305
KKS-1 28 May 01:55:16 01:58:49 24° 79° (E) 02:02:29 437.445
ITUPSAT 1 28 May 01:57:02 02:01:22 34° 258° (WSW) 02:05:38 437.325
BEESAT 28 May 02:04:29 02:08:32 27° 259° (WSW) 02:12:28 436.000
Gurwin Techsat 1B 28 May 02:13:08 02:18:26 83° 283° (WNW) 02:23:47 435.225
SWISSCUBE 28 May 02:13:49 02:17:13 19° 259° (W) 02:20:24 437.505
SRMSAT 28 May 02:40:05 02:42:43 13° 171° (S) 02:45:25 437.500
STARS 28 May 02:56:30 03:00:57 82° 260° (W) 03:05:23 437.465
HORYU 2 28 May 03:00:24 03:04:30 39° 102° (ESE) 03:08:40 437.375
Cosmos 2499 28 May 03:03:07 03:09:29 32° 264° (W) 03:16:01 435.465 / 435.565
JUGNU 28 May 03:08:45 03:13:58 31° 162° (SSE) 03:19:16 437.505
JAS-2 28 May 03:10:30 03:15:49 53° 103° (ESE) 03:21:49 435.910
ITAMSAT 1 28 May 03:12:12 03:15:22 15° 281° (W) 03:18:14 435.822/435.867
BEESAT 3 28 May 03:21:14 03:25:00 43° 68° (ENE) 03:28:45 437.485
MOZHAYETS 4 28 May 03:30:46 03:34:00 20° 80° (E) 03:37:23
KKS-1 28 May 03:32:43 03:35:20 15° 260° (W) 03:37:42 437.445
AO-7 28 May 03:35:04 03:43:23 74° 105° (ESE) 03:51:45 29.400- 29.500
AIST 2 28 May 04:07:16 04:10:41 26° 67° (ENE) 04:14:09 435.215
BEESAT 2 28 May 04:11:13 04:14:59 41° 248° (WSW) 04:18:42 435.950
SRMSAT 28 May 04:27:44 04:32:38 26° 163° (SSE) 04:37:35 437.500
JUGNU 28 May 04:57:08 05:03:10 83° 159° (SSE) 05:09:12 437.505
MOZHAYETS 4 28 May 05:07:43 05:11:07 19° 260° (W) 05:14:17
CUBESAT XI-V 28 May 05:12:19 05:15:19 18° 80° (E) 05:18:31 437.345
RS-15 28 May 05:20:29 05:27:22 20° 116° (ESE) 05:35:00 29.354- 29.394
CUTE-I 28 May 05:29:57 05:34:51 38° 102° (ESE) 05:39:50 437.470
AO-7 28 May 05:32:20 05:36:09 13° 284° (WNW) 05:39:07 29.400- 29.500
AIST 2 28 May 05:47:55 05:49:09 11° 246° (WSW) 05:50:04 435.215
Cubesat XI-IV 28 May 05:50:25 05:55:45 69° 102° (ESE) 06:01:08 437.490
Cosmos 2491 28 May 06:04:20 06:12:51 58° 86° (E) 06:21:25 435.465 / 435.565
PRISM 28 May 06:09:12 06:13:00 37° 79° (E) 06:16:48 437.425
SRMSAT 28 May 06:16:05 06:22:03 67° 159° (SSE) 06:28:00 437.500
M-CUBED/EXP-1 PRIME 28 May 06:24:52 06:28:49 29° 77° (ENE) 06:32:40 437.505
YUBILEINY 28 May 06:27:36 06:36:26 80° 94° (E) 06:45:12 435.215
AUBIESAT-1 28 May 06:32:02 06:36:01 30° 76° (ENE) 06:39:51 437.475
JUGNU 28 May 06:46:49 06:52:19 36° 341° (NNW) 06:57:46 437.505
CUBESAT XI-V 28 May 06:49:08 06:52:39 21° 260° (W) 06:56:00 437.345
STRAND 1 28 May 06:53:14 06:58:17 65° 258° (WSW) 07:03:19 437.568
AIST 1 28 May 06:55:58 06:59:35 26° 85° (E) 07:03:18
HO-68 28 May 06:59:28 07:01:40 12° 103° (ESE) 07:04:35 435.675
CUTE-I 28 May 07:12:00 07:14:51 14° 281° (W) 07:17:19 437.470
GOMX 1 28 May 07:16:42 07:19:58 19° 98° (E) 07:23:18 467.674
BRITE-PL 28 May 07:18:22 07:23:11 39° 100° (E) 07:27:43 437.365/2234.400
RS-15 28 May 07:29:01 07:39:54 64° 292° (WNW) 07:50:34 29.354- 29.394
ISS 28 May 07:30:55 07:34:03 45° 55° (NE) 07:37:11 145.825
M-CUBED/EXP-1 PRIME 28 May 08:00:48 08:03:27 14° 254° (WSW) 08:05:44 437.505
Cosmos 2491 28 May 08:04:17 08:09:43 17° 264° (W) 08:14:24 435.465 / 435.565
SRMSAT 28 May 08:05:36 08:11:18 45° 340° (NNW) 08:16:58 437.500
AUBIESAT-1 28 May 08:08:12 08:10:33 13° 254° (WSW) 08:12:34 437.475
DOVE 4 28 May 08:10:49 08:15:23 57° 101° (E) 08:19:45 437.250
CANX-2 28 May 08:16:00 08:20:12 79° 101° (E) 08:24:26 2200.000
CUTE 1.7 + AOD 2 28 May 08:19:23 08:23:35 77° 101° (E) 08:27:49 437.475
CUBEBUG 2 28 May 08:27:07 08:28:51 13° 99° (E) 08:30:52 437.445
YUBILEINY 28 May 08:31:59 08:33:24 10° 277° (W) 08:33:39 435.215
Oscar 11 28 May 08:32:33 08:35:33 19° 100° (E) 08:38:44 145.826/435.025
AIST 1 28 May 08:35:22 08:37:09 12° 264° (W) 08:38:36
JUGNU 28 May 08:38:10 08:41:51 16° 347° (NNW) 08:45:26 437.505
SEEDS 28 May 08:40:15 08:44:24 67° 281° (W) 08:48:34 437.485
HO-68 28 May 08:42:17 08:49:21 66° 284° (WNW) 08:56:26 435.675
COMPASS 1 28 May 08:51:42 08:55:48 59° 280° (W) 08:59:55 437.405
VERMONT LUNAR 28 May 08:51:47 08:54:55 60° 43° (NE) 08:58:06 437.305
Cosmos 2504 28 May 08:53:30 09:02:17 73° 94° (E) 09:10:36 435.465 / 435.565
GOMX 1 28 May 08:54:11 08:58:00 22° 282° (WNW) 09:01:29 467.674
BRITE-PL 28 May 08:59:24 09:01:30 12° 282° (WNW) 09:03:08 437.365/2234.400
AAUSAT CUBESAT 2 28 May 09:02:56 09:06:56 49° 281° (W) 09:10:58 437.432
UWE-3 28 May 09:09:54 09:13:51 42° 101° (E) 09:17:48 435.000/436.395/437.385
